Location: Ferchesar
(52.6477°N, 12.4298°E)
Time: 10:09:58
(UTC+01:00)

Vanguard 1 - Pass Details

Date: 07 December 2021
Orbit: 652 x 3830 km, 34.2° (Epoch: 24 January)

Event Time Altitude Azimuth Distance (km) Brightness Sun altitude
Rises 22:12:38 0° 212° (SSW) 6,688 14.2 -53.5°
Enters shadow 22:15:50 - 206° (SSW) 6,241 14.0 -53.9°
Reaches altitude 10° 22:17:21 10° 203° (SSW) 6,051 - -54.0°
Maximum altitude 22:34:11 33° 149° (SSE) 5,134 - -55.7°
Drops below altitude 10° 22:52:46 10° 96° (E) 6,710 - -57.3°
Exits shadow 22:56:47 - 90° (E) 7,260 14.3 -57.6°
Sets 22:58:19 0° 88° (E) 7,480 14.4 -57.7°
